2022/12/23 00:00:00,41.4,-4.2
2022/12/23 00:10:00,42.1,-4.1
2022/12/23 00:20:00,42.5,-4.5
2022/12/23 00:30:00,43.0,-4.6
2022/12/23 00:40:00,43.4,-4.8
2022/12/23 00:50:00,44.3,-4.7
2022/12/23 01:00:00,45.0,-4.9
2022/12/23 01:10:00,45.9,-4.4
2022/12/23 01:20:00,48.2,-4.6
2022/12/23 01:30:00,49.2,-4.5
2022/12/23 01:40:00,50.5,-4.6
2022/12/23 01:50:00,51.5,-4.8
2022/12/23 02:00:00,51.5,-4.5
2022/12/23 02:10:00,50.7,-4.8
2022/12/23 02:20:00,51.2,-4.8
2022/12/23 02:30:00,51.4,-4.0
2022/12/23 02:40:00,51.8,-4.8
2022/12/23 02:50:00,52.5,-4.6
2022/12/23 03:00:00,52.9,-4.9
2022/12/23 03:10:00,53.7,-5.0
2022/12/23 03:20:00,54.8,-4.7
2022/12/23 03:30:00,56.4,-4.8
2022/12/23 03:40:00,56.9,-4.6
2022/12/23 03:50:00,57.2,-4.8
2022/12/23 04:00:00,58.1,-4.4
2022/12/23 04:10:00,58.8,-4.9
2022/12/23 04:20:00,59.2,-4.7
2022/12/23 04:30:00,59.5,-4.6
2022/12/23 04:40:00,60.1,-4.9
2022/12/23 04:50:00,60.5,-4.8
2022/12/23 05:00:00,61.0,-4.8
2022/12/23 05:10:00,61.1,-4.6
2022/12/23 05:20:00,61.1,-4.8
2022/12/23 05:30:00,61.1,-5.0
2022/12/23 05:40:00,61.4,-4.8
2022/12/23 05:50:00,61.6,-4.9
2022/12/23 06:00:00,61.5,-5.0
2022/12/23 06:10:00,61.1,-4.8
2022/12/23 06:20:00,61.4,-5.0
2022/12/23 06:30:00,62.2,-4.8
2022/12/23 06:40:00,62.7,-4.8
2022/12/23 06:50:00,62.7,-4.8
2022/12/23 07:00:00,62.6,-4.9
2022/12/23 07:10:00,62.5,-4.8
2022/12/23 07:20:00,62.5,-4.9
2022/12/23 07:30:00,62.3,-4.9
2022/12/23 07:40:00,62.0,-4.7
2022/12/23 07:50:00,61.8,-4.8
2022/12/23 08:00:00,61.6,-4.7
2022/12/23 08:10:00,61.9,-4.8
2022/12/23 08:20:00,61.8,-4.3
2022/12/23 08:30:00,61.5,-4.5
2022/12/23 08:40:00,61.6,-4.3
2022/12/23 08:50:00,61.7,-3.5
2022/12/23 09:00:00,61.6,-3.6
2022/12/23 09:10:00,61.3,-3.7
2022/12/23 09:20:00,60.7,-3.3
2022/12/23 09:30:00,60.5,-3.1
2022/12/23 09:40:00,60.5,-3.2
2022/12/23 09:50:00,60.2,-3.7
2022/12/23 10:00:00,59.9,-2.5
2022/12/23 10:10:00,59.6,-3.0
2022/12/23 10:20:00,59.5,-3.1
2022/12/23 10:30:00,59.1,-3.3
2022/12/23 10:40:00,58.7,-3.4
2022/12/23 10:50:00,59.1,-3.1
2022/12/23 11:00:00,58.7,-3.2
2022/12/23 11:10:00,58.6,-3.9
2022/12/23 11:20:00,58.6,-4.2
2022/12/23 11:30:00,58.8,-4.3
2022/12/23 11:40:00,58.9,-4.4
2022/12/23 11:50:00,59.5,-4.3
2022/12/23 12:00:00,60.0,-3.9
2022/12/23 12:10:00,60.0,-3.9
2022/12/23 12:20:00,60.5,-4.2
2022/12/23 12:30:00,61.8,-4.1
2022/12/23 12:40:00,62.9,-3.8
2022/12/23 12:50:00,63.5,-3.5
2022/12/23 13:00:00,64.2,-3.8
2022/12/23 13:10:00,65.1,-4.2
2022/12/23 13:20:00,65.8,-4.3
2022/12/23 13:30:00,66.7,-4.2
2022/12/23 13:40:00,67.5,-3.6
2022/12/23 13:50:00,68.5,-3.7
2022/12/23 14:00:00,68.7,-3.5
2022/12/23 14:10:00,68.7,-3.8
2022/12/23 14:20:00,68.8,-3.9
2022/12/23 14:30:00,69.2,-4.2
2022/12/23 14:40:00,69.5,-3.9
2022/12/23 14:50:00,69.8,-4.0
2022/12/23 15:00:00,70.2,-4.3
2022/12/23 15:10:00,70.7,-4.3
2022/12/23 15:20:00,70.6,-4.6
2022/12/23 15:30:00,71.8,-4.4
2022/12/23 15:40:00,72.1,-4.2
2022/12/23 15:50:00,72.5,-4.4
2022/12/23 16:00:00,73.7,-4.1
2022/12/23 16:10:00,74.0,-4.1
2022/12/23 16:20:00,74.6,-4.3
2022/12/23 16:30:00,75.1,-3.9
2022/12/23 16:40:00,75.7,-4.5
2022/12/23 16:50:00,75.8,-4.3
2022/12/23 17:00:00,75.7,-3.9
2022/12/23 17:10:00,75.4,-4.1
2022/12/23 17:20:00,75.7,-4.6
2022/12/23 17:30:00,76.5,-4.3
2022/12/23 17:40:00,76.2,-4.4
2022/12/23 17:50:00,75.9,-4.3
2022/12/23 18:00:00,75.7,-3.9
2022/12/23 18:10:00,75.9,-4.4
2022/12/23 18:20:00,75.6,-4.3
2022/12/23 18:30:00,75.4,-4.4
2022/12/23 18:40:00,75.5,-4.0
2022/12/23 18:50:00,75.5,-3.9
2022/12/23 19:00:00,75.6,-4.0
2022/12/23 19:10:00,75.6,-3.7
2022/12/23 19:20:00,75.6,-4.0
2022/12/23 19:30:00,76.0,-3.9
2022/12/23 19:40:00,76.1,-3.8
2022/12/23 19:50:00,76.3,-3.5
2022/12/23 20:00:00,76.0,-4.0
2022/12/23 20:10:00,75.9,-3.7
2022/12/23 20:20:00,75.6,-3.6
2022/12/23 20:30:00,75.2,-3.5
2022/12/23 20:40:00,75.4,-3.5
2022/12/23 20:50:00,75.9,-3.2
2022/12/23 21:00:00,76.5,-3.5
2022/12/23 21:10:00,76.8,-3.1
2022/12/23 21:20:00,77.0,-3.6
2022/12/23 21:30:00,77.3,-3.4
2022/12/23 21:40:00,77.6,-3.0
2022/12/23 21:50:00,77.6,-3.2
2022/12/23 22:00:00,77.8,-2.9
2022/12/23 22:10:00,77.8,-3.1
2022/12/23 22:20:00,78.0,-3.2
2022/12/23 22:30:00,78.9,-3.2
2022/12/23 22:40:00,79.7,-2.8
2022/12/23 22:50:00,80.2,-3.4
2022/12/23 23:00:00,80.6,-3.2
2022/12/23 23:10:00,80.6,-3.2
2022/12/23 23:20:00,81.3,-3.4
2022/12/23 23:30:00,82.5,-3.3
2022/12/23 23:40:00,83.2,-3.5
2022/12/23 23:50:00,83.4,-3.1
